AirNav   Everest Fuels
 
 1589 users online  

NC34 Miles Airport
Chapel Hill, North Carolina, USA

GOING TO CHAPEL HILL?


FAA INFORMATION EFFECTIVE 20 MAY 2021

Location

FAA Identifier: NC34
Lat/Long: 35-58-44.1186N 079-07-36.6996W
35-58.735310N 079-07.611660W
35.9789218,-79.1268610
(estimated)
Elevation: 580 ft. / 177 m (estimated)
Variation: 07W (1985)
From city: 5 miles NW of CHAPEL HILL, NC
Time zone: UTC -4 (UTC -5 during Standard Time)
Zip code: 27516

Airport Operations

Airport use: Private use. Permission required prior to landing
Activation date: 11/1988
Control tower: no
ARTCC: WASHINGTON CENTER
FSS: RALEIGH FLIGHT SERVICE STATION
Attendance: UNATNDD
Wind indicator: yes
Segmented circle: no

Airport Communications

WX ASOS at BUY (17 nm W): 135.325 (336-570-9813)
WX ASOS at RDU (18 nm E): PHONE 919-840-0816
WX AWOS-3 at TDF (20 nm N): 126.725 (336-364-1651)

Nearby radio navigation aids

VOR radial/distance  VOR name  Freq  Var
RDUr300/17.9RALEIGH/DURHAM VORTAC117.2009W
LIBr070/25.7LIBERTY VORTAC113.0003W
DANr170/(36.8)DANVILLE VOR113.1006W

 
NDB name  Hdg/Dist  Freq  Var  ID
PERSON199/15.522008WHUR .... ..- .-.
HUNTSBORO241/31.327109WHXO .... -..- ---
SLAMMER135/39.142307WSIF ... .. ..-.
HARNETT334/39.541708WHQT .... --.- -

Airport Services

Runway Information

Runway 9/27

Dimensions: 2500 x 120 ft. / 762 x 37 m
Surface: turf
RUNWAY 9  RUNWAY 27
Traffic pattern: leftright
Displaced threshold: 300 ft.no
Obstructions: 70 ft. trees, 50 ft. from runway40 ft. trees, 100 ft. from runway

Airport Ownership and Management from official FAA records

Ownership: Privately-owned
Owner: MICHAEL G. MILES
6721 UNION GROVE CHURCH RD
HILLSBOROUGH, NC 27278-7407
Phone 919-967-5458
Manager: MICHAEL G. MILES
6721 UNION GROVE CHURCH RD
HILLSBOROUGH, NC 27278
Phone 919-967-5458

Airport Operational Statistics

Aircraft based on the field: 1
Single engine airplanes: 1
    

Additional Remarks

FOR CD CTC WASHINGTON ARTCC AT 703-771-3587.

Instrument Procedures

There are no published instrument procedures at NC34.

Some nearby airports with instrument procedures:

KBUY - Burlington-Alamance Regional Airport (17 nm W)
KRDU - Raleigh-Durham International Airport (18 nm E)
KTDF - Raleigh Regional Airport at Person County (20 nm N)
KTTA - Raleigh Executive Jetport at Sanford-Lee County Airport (24 nm S)
2A5 - Causey Airport (24 nm W)
 
Loc | Ops | Rwys | IFR | FBO | Links
Com | Nav | Svcs | Stats | Notes
Area around NC34 (Miles Airport)
 
Road maps at: MapQuest Bing Google
 
Aerial photo
No photo
 
Sectional chart

 
Airport distance calculator
Flying to Miles Airport? Find the distance to fly.

From to NC34

Sunrise and sunset
Times for 14-Jun-2021
 Local
(UTC-4)
 Zulu
(UTC)
Morning civil twilight05:3009:30
Sunrise06:0010:00
Sunset20:3300:33
Evening civil twilight21:0301:03

Current date and time
Zulu (UTC)  14-Jun-2021 14:56:41
Local (UTC-4)  14-Jun-2021 10:56:41
 
METAR
KBUY 
17nm W 
141354Z AUTO 24005KT 10SM CLR 26/19 A2990 RMK AO2 SLP118 T02610189
KRDU 
18nm E 
141351Z 23008KT 10SM FEW020 BKN250 26/21 A2990 RMK AO2 SLP119 T02610206
KTDF 
20nm N 
141435Z AUTO 28004KT 10SM CLR 25/20 A2991 RMK AO2
TAF
KRDU 
18nm E 
141120Z 1412/1512 VRB04KT P6SM FEW120 SCT250 FM141600 26006KT P6SM SCT050 BKN250 FM142000 25006KT P6SM VCTS SCT040CB BKN060 FM150300 VRB03KT P6SM SCT070 BKN150
NOTAMs
Click for the latest NOTAMs
NOTAMs are issued by the DoD/FAA and will open in a separate window not controlled by AirNav.

 

 
 

Would you like to see your business listed on this page?

 If your business provides an interesting product or service to pilots, flight crews, aircraft, or users of the Miles Airport, you should consider listing it here.  To start the listing process, click on the button below
 
Add a business
 

Other Pages about Miles Airport

Update a link
 
Copyright © AirNav, LLC. All rights reserved. Privacy Policy  Contact